Location: Newark
(42.7133°N, 87.7910°W)
Time: 00:24:34
(UTC+00:00)

Tiros 1 - Pass Details

Date: 25 September 2019
Orbit: 630 x 664 km, 48.4° (Epoch: 19 October)

Event Time Altitude Azimuth Distance (km) Brightness Sun altitude
Rises 21:09:52 0° 294° (WNW) 2,962 11.1 26.3°
Reaches altitude 10° 21:12:15 10° 298° (WNW) 2,044 10.3 25.9°
Maximum altitude 21:16:54 59° 19° (NNE) 740 7.6 25.1°
Drops below altitude 10° 21:21:30 10° 99° (E) 2,018 9.3 24.4°
Sets 21:23:50 0° 103° (ESE) 2,920 10.1 24.0°
